Wind_Speed
7 8 8 7 7 6 6 5 5 5 5 4 4 5 5 5 5 5 6 6 7 7 6 6 6 5 4 4 4 4 3 2 2 1 2 2 2 2 2 3 5 4 3
8 8 8 8 8 7 6 6 5 6 5 5 5 5 5 5 5 5 6 6 6 6 5 5 5 5 4 4 4 3 3 2 2 2 2 2 2 3 3 3 4 5 4
9 9 9 9 8 8 7 7 7 6 6 6 6 6 6 6 6 6 5 6 5 5 5 5 5 5 4 4 4 4 4 3 3 3 3 3 3 3 4 4 4 4 5
9 9 9 10 9 9 8 8 8 8 7 7 7 7 6 6 6 6 6 6 6 5 5 5 5 5 5 5 4 4 4 4 4 4 4 3 3 4 4 4 4 4 4
9 9 9 9 9 9 8 8 9 9 8 8 8 8 7 7 7 7 6 6 6 6 6 6 6 6 6 5 5 5 5 5 5 5 5 4 4 4 5 5 5 5 4
10 10 10 10 9 9 9 9 10 10 9 9 9 9 8 8 8 8 7 7 7 7 7 6 7 7 6 6 5 5 5 6 6 6 5 5 5 5 5 6 6 5 5
11 10 11 10 11 10 10 11 11 11 10 9 10 10 9 8 8 8 8 8 8 7 7 7 7 7 7 7 7 6 5 6 6 6 6 5 5 5 6 6 6 5 5
11 11 11 11 11 11 11 11 12 11 11 10 11 10 9 9 9 9 9 9 9 8 8 8 8 8 8 7 7 7 7 7 6 6 6 6 6 6 6 6 7 6 7
11 12 12 12 12 12 12 12 12 12 11 11 11 11 10 9 9 9 9 9 9 9 9 9 9 8 8 8 7 7 7 7 8 7 6 6 7 7 8 8 8 8 8
12 12 13 13 13 12 13 13 12 12 11 12 12 11 11 10 10 10 10 10 10 10 10 10 9 9 8 8 8 8 9 8 8 8 8 8 8 8 9 9 9 9 9
12 13 13 14 14 13 13 13 13 13 12 12 13 13 12 12 12 12 11 11 11 11 11 11 10 10 10 9 9 9 9 9 9 9 9 9 9 9 10 10 10 11 11
13 13 13 13 14 14 14 14 13 13 13 13 14 13 13 13 13 12 12 12 12 12 12 12 12 12 11 11 10 11 10 10 11 11 11 11 11 11 11 11 12 12 12
13 13 13 15 15 15 15 15 15 14 14 13 13 13 13 13 13 13 13 13 13 13 12 12 13 13 12 12 12 12 12 11 11 11 12 12 13 12 13 13 13 13 13
12 13 14 15 15 16 16 15 16 15 14 14 13 12 13 13 13 13 14 14 13 14 14 13 13 13 13 12 13 13 13 12 12 12 13 13 13 13 14 14 14 14 14
13 14 15 15 15 16 15 15 15 15 14 13 13 12 13 13 13 13 14 14 14 14 14 13 14 14 14 13 13 13 14 13 13 14 14 14 14 14 15 15 15 15 16
15 15 16 16 16 15 15 15 15 14 13 13 12 12 13 14 13 13 14 14 14 14 14 15 15 15 14 14 14 14 15 15 15 15 16 15 15 15 15 16 16 16 16
15 15 16 16 15 15 15 14 14 14 14 14 13 12 13 13 13 14 14 14 15 15 15 15 15 15 14 14 14 15 15 16 16 16 16 16 16 16 16 17 17 16 17
16 16 16 15 14 14 14 13 13 14 15 14 13 13 12 13 13 14 14 14 15 15 15 15 15 15 16 16 15 16 16 16 16 16 16 17 17 17 17 17 17 17 18
16 16 16 15 14 14 14 13 13 13 14 14 14 13 13 14 15 15 15 15 15 15 15 16 16 16 16 16 16 17 17 16 17 17 18 18 18 18 18 18 18 19 19
17 15 15 15 14 14 14 15 14 14 14 14 15 14 15 16 15 15 15 15 16 16 16 16 15 16 16 17 17 18 17 17 18 18 18 19 19 19 19 19 20 20 19
16 15 14 15 15 15 15 15 14 14 13 13 14 14 15 15 15 15 15 16 16 16 16 16 16 16 17 17 18 18 18 18 19 19 19 19 19 19 20 21 21 20 21
16 15 15 15 16 16 16 16 15 15 15 15 15 15 15 14 14 15 16 16 17 17 16 17 17 17 18 18 17 18 18 18 19 19 19 19 19 20 21 21 21 21 22
17 16 16 16 16 15 16 15 16 16 16 16 16 15 15 14 13 15 15 15 16 17 17 18 18 19 19 18 18 18 18 18 19 19 20 20 20 21 21 21 21 22 22
16 16 16 16 15 15 15 15 16 16 16 14 14 14 14 14 14 14 14 15 16 17 18 19 19 19 19 19 18 18 18 19 20 20 20 21 22 22 22 21 22 22 23
17 16 16 15 14 14 14 14 15 14 15 14 13 14 14 15 15 15 15 16 17 18 19 19 19 19 19 18 18 19 19 19 20 20 20 21 22 22 21 22 22 23 23
16 15 15 15 15 15 14 14 13 13 13 13 14 14 14 15 15 15 16 17 18 18 19 19 19 19 19 19 19 19 19 19 20 20 21 20 21 21 21 21 22 22 22
Wind_Direction
325 324 321 319 319 321 322 325 323 325 328 333 337 340 334 331 332 337 340 341 341 338 334 333 338 337 341 345 339 344 351 350 333 313 294 286 279 276 266 239 233 224 211
321 316 312 314 313 314 313 316 315 314 315 320 324 327 322 316 319 328 327 327 328 328 324 320 324 323 321 327 328 328 327 321 301 294 291 280 276 272 272 268 247 234 211
315 309 308 310 312 313 312 311 312 310 309 309 312 316 314 316 316 321 316 315 317 319 316 310 309 302 300 306 306 308 304 302 297 285 284 273 273 276 272 273 259 253 234
311 307 306 310 311 312 311 310 308 305 303 303 303 304 303 305 306 308 311 307 308 310 305 299 301 297 294 298 300 299 290 291 296 292 284 280 279 278 271 262 257 263 249
309 307 306 307 310 306 305 304 304 300 297 296 297 296 293 293 295 298 298 302 305 305 300 295 289 292 295 292 290 291 289 288 287 288 284 280 281 277 271 264 262 261 250
306 304 299 300 302 300 298 296 296 293 292 292 292 292 288 285 285 290 290 292 297 298 295 293 289 288 287 281 282 285 285 285 283 283 285 283 280 277 277 271 269 262 252
303 303 300 296 299 299 295 295 293 288 287 287 289 289 287 282 280 281 282 284 287 289 291 286 283 285 285 279 278 279 278 281 277 278 279 281 279 277 277 271 268 263 258
300 300 298 295 296 296 292 292 291 289 284 284 284 283 285 282 277 277 277 278 282 284 286 284 283 284 284 281 278 275 276 275 273 274 279 279 276 274 276 274 268 266 265
298 298 297 294 293 293 292 290 290 287 284 280 281 281 280 277 274 274 275 274 277 278 280 280 280 284 284 278 274 275 275 272 271 272 279 278 273 273 271 271 270 267 264
297 294 294 293 292 288 288 286 290 287 283 282 278 276 276 274 271 270 271 272 272 272 276 278 278 280 279 276 273 271 271 273 270 272 274 277 277 274 271 270 269 266 262
294 292 293 293 290 287 285 284 285 286 281 282 278 271 268 268 268 267 268 270 269 269 270 273 275 275 273 271 269 270 272 274 273 273 273 274 278 280 273 267 268 266 264
296 293 291 290 289 286 285 284 281 284 279 279 278 271 270 267 265 266 267 268 269 268 267 269 272 271 270 271 268 269 271 272 272 274 275 274 275 276 276 271 270 269 266
295 293 292 287 285 286 286 283 281 281 282 282 274 272 270 267 266 264 265 267 267 266 264 266 269 269 270 271 270 268 270 273 274 275 276 275 274 275 278 276 273 272 268
293 291 290 287 285 284 286 284 281 279 279 277 272 270 269 266 266 267 265 265 266 264 264 267 266 268 270 270 270 268 270 273 275 275 276 277 276 277 278 277 274 272 270
294 289 289 288 285 282 282 282 279 277 276 276 271 266 268 267 264 266 267 265 262 261 263 264 266 266 267 270 270 269 272 275 277 276 277 278 277 277 277 276 272 271 270
296 293 291 286 283 282 279 277 277 276 276 276 275 267 266 265 263 264 262 260 260 259 260 262 266 264 264 265 266 269 272 275 275 275 277 278 279 278 277 276 275 273 271
295 291 288 286 283 283 278 273 274 273 272 272 271 268 263 261 262 261 260 260 258 258 260 262 262 259 260 265 267 270 273 274 273 275 278 279 279 280 281 279 277 274 271
295 291 286 284 284 282 275 270 272 272 272 269 268 268 261 259 260 260 260 262 260 261 261 261 260 259 262 264 267 271 273 275 274 276 279 278 279 282 282 280 277 274 273
294 291 287 282 279 276 271 267 269 273 270 270 271 268 262 259 258 258 258 259 260 258 260 261 262 262 264 264 267 270 273 275 278 276 280 279 280 281 280 277 276 275 273
293 290 282 277 273 269 269 267 268 269 271 271 272 268 264 261 258 257 256 257 257 257 259 260 264 265 266 267 269 272 273 276 277 279 280 281 282 280 281 280 279 276 274
289 288 282 277 272 271 270 267 265 266 269 271 268 266 264 262 258 256 255 257 257 257 258 261 264 266 268 269 271 273 274 275 277 281 283 284 282 282 283 282 280 278 276
288 286 282 277 275 273 270 267 264 263 265 266 265 264 265 262 258 256 256 255 256 258 261 265 267 269 271 273 273 273 273 274 278 282 285 283 282 282 283 283 280 278 278
287 284 282 277 273 269 268 268 269 266 266 263 260 260 259 257 258 256 255 256 257 260 263 268 272 272 272 272 272 272 272 274 278 280 281 281 282 283 284 283 279 279 281
286 282 280 278 275 270 270 268 270 268 264 262 258 259 256 258 260 257 258 263 261 260 263 268 271 273 274 272 270 271 274 277 280 280 280 281 282 283 283 281 281 281 281
288 284 280 278 274 271 270 270 270 268 263 259 259 263 260 262 261 257 259 262 265 267 268 270 271 273 273 271 269 271 275 279 281 282 281 281 282 282 281 280 282 284 282
284 281 280 278 273 270 271 270 272 269 265 263 261 262 263 264 263 261 259 262 264 267 269 270 271 272 270 271 273 274 276 279 282 283 282 282 282 282 280 280 283 285 285
Height
5883 5882 5882 5882 5881 5881 5881 5881 5881 5881 5881 5882 5882 5882 5882 5882 5883 5883 5883 5883 5883 5883 5883 5882 5882 5882 5882 5882 5882 5882 5882 5882 5882 5883 5883 5883 5883 5884 5883 5884 5884 5885 5885
5882 5882 5882 5881 5881 5880 5880 5880 5880 5880 5880 5881 5881 5881 5881 5881 5882 5882 5882 5882 5882 5882 5882 5882 5882 5882 5882 5882 5882 5882 5882 5882 5882 5882 5882 5883 5883 5883 5883 5883 5883 5884 5884
5881 5881 5880 5880 5880 5879 5879 5879 5879 5879 5879 5880 5880 5880 5881 5881 5881 5881 5881 5881 5881 5881 5881 5882 5881 5881 5881 5881 5881 5881 5882 5882 5882 5882 5882 5882 5882 5883 5883 5883 5883 5884 5884
5880 5880 5879 5879 5878 5878 5878 5878 5878 5878 5878 5878 5879 5879 5879 5880 5880 5880 5880 5881 5880 5880 5880 5880 5881 5880 5880 5880 5881 5881 5881 5881 5881 5881 5881 5881 5881 5882 5882 5882 5882 5883 5883
5879 5878 5878 5877 5877 5877 5876 5876 5876 5876 5877 5877 5877 5878 5878 5878 5879 5879 5879 5879 5879 5879 5879 5879 5879 5880 5879 5880 5880 5880 5880 5880 5880 5880 5880 5880 5881 5881 5881 5881 5882 5882 5882
5877 5877 5876 5876 5876 5875 5875 5875 5875 5875 5875 5875 5876 5876 5876 5877 5877 5878 5878 5878 5878 5878 5878 5878 5878 5878 5879 5879 5879 5879 5879 5879 5879 5879 5879 5879 5880 5880 5880 5880 5880 5881 5881
5875 5875 5874 5874 5874 5873 5873 5873 5873 5873 5873 5873 5874 5874 5874 5875 5875 5876 5876 5876 5877 5877 5877 5877 5877 5877 5877 5878 5878 5878 5878 5878 5878 5878 5878 5878 5878 5879 5879 5879 5879 5880 5880
5873 5872 5872 5871 5871 5871 5871 5871 5871 5871 5871 5871 5872 5872 5872 5873 5873 5874 5874 5874 5875 5875 5875 5875 5875 5875 5876 5876 5876 5876 5876 5876 5877 5877 5877 5877 5877 5877 5877 5877 5878 5878 5879
5871 5870 5870 5869 5869 5869 5869 5868 5868 5868 5869 5869 5869 5869 5870 5870 5871 5871 5872 5872 5873 5873 5873 5873 5873 5874 5874 5874 5875 5875 5875 5875 5875 5875 5875 5875 5875 5876 5876 5876 5876 5877 5877
5868 5867 5867 5866 5866 5866 5866 5866 5866 5866 5866 5866 5866 5867 5867 5868 5868 5869 5869 5870 5870 5871 5871 5871 5872 5872 5872 5872 5873 5873 5873 5873 5873 5874 5874 5874 5874 5874 5874 5874 5874 5875 5875
5865 5864 5864 5864 5863 5863 5863 5863 5863 5863 5863 5863 5863 5864 5864 5865 5865 5866 5867 5867 5867 5868 5869 5869 5869 5870 5870 5870 5870 5871 5871 5871 5872 5872 5872 5872 5872 5872 5872 5872 5872 5873 5873
5862 5861 5861 5861 5860 5860 5860 5860 5860 5860 5860 5859 5859 5860 5861 5862 5862 5863 5864 5864 5865 5865 5866 5866 5867 5867 5867 5868 5868 5868 5869 5869 5869 5869 5870 5870 5870 5870 5870 5870 5870 5871 5871
5859 5858 5858 5858 5857 5857 5857 5857 5857 5857 5857 5856 5856 5857 5858 5859 5859 5860 5860 5861 5862 5862 5863 5864 5864 5865 5865 5865 5865 5866 5866 5867 5867 5867 5867 5867 5867 5867 5867 5867 5867 5868 5868
5856 5855 5855 5854 5854 5854 5853 5853 5853 5853 5853 5853 5853 5853 5854 5855 5856 5857 5857 5858 5859 5860 5860 5861 5861 5862 5862 5862 5863 5863 5863 5864 5864 5864 5864 5864 5865 5865 5864 5864 5864 5864 5865
5853 5852 5851 5851 5850 5850 5850 5850 5850 5850 5850 5850 5850 5850 5851 5852 5853 5853 5854 5855 5856 5857 5857 5858 5858 5859 5859 5859 5860 5860 5861 5861 5861 5861 5861 5861 5861 5861 5861 5861 5861 5861 5861
5849 5848 5847 5847 5847 5846 5846 5846 5846 5846 5846 5846 5846 5847 5847 5848 5849 5850 5851 5851 5852 5853 5854 5854 5855 5855 5856 5856 5857 5857 5858 5858 5858 5858 5858 5858 5858 5857 5857 5857 5857 5857 5857
5845 5844 5843 5843 5842 5842 5842 5842 5842 5843 5843 5843 5843 5843 5844 5845 5846 5846 5847 5848 5849 5850 5851 5851 5851 5852 5852 5853 5854 5854 5854 5854 5854 5854 5854 5854 5854 5854 5853 5853 5853 5852 5853
5841 5840 5839 5838 5838 5838 5838 5838 5839 5839 5839 5839 5840 5840 5840 5842 5843 5843 5844 5844 5845 5846 5847 5848 5848 5849 5849 5849 5850 5850 5850 5850 5850 5850 5850 5850 5850 5849 5849 5848 5848 5848 5848
5836 5835 5834 5834 5834 5834 5834 5834 5835 5836 5836 5836 5836 5837 5837 5838 5839 5840 5840 5841 5842 5843 5844 5844 5845 5845 5845 5846 5846 5846 5846 5847 5846 5846 5846 5845 5845 5844 5844 5843 5843 5843 5843
5832 5831 5831 5830 5830 5830 5830 5831 5831 5832 5832 5833 5833 5833 5834 5835 5835 5836 5837 5838 5839 5839 5840 5840 5841 5841 5842 5842 5842 5842 5842 5842 5842 5841 5841 5840 5840 5840 5839 5838 5838 5837 5837
5828 5827 5826 5826 5826 5826 5826 5827 5827 5828 5829 5829 5829 5829 5830 5831 5832 5832 5833 5834 5835 5836 5836 5837 5837 5837 5838 5838 5838 5838 5838 5838 5837 5837 5836 5835 5835 5834 5834 5833 5832 5832 5832
5824 5823 5823 5822 5822 5822 5823 5823 5824 5824 5824 5825 5826 5826 5827 5827 5828 5829 5829 5830 5831 5832 5832 5833 5833 5833 5833 5833 5834 5833 5833 5834 5833 5832 5831 5831 5830 5829 5828 5827 5827 5826 5826
5821 5820 5819 5818 5818 5818 5818 5819 5819 5820 5820 5821 5822 5822 5823 5823 5824 5825 5825 5826 5827 5828 5828 5829 5829 5829 5829 5829 5829 5829 5829 5829 5828 5828 5827 5826 5825 5824 5823 5822 5821 5821 5820
5817 5815 5814 5814 5814 5814 5814 5815 5815 5816 5816 5817 5818 5819 5819 5820 5821 5821 5822 5823 5823 5824 5824 5825 5825 5824 5824 5824 5824 5824 5824 5824 5823 5823 5822 5821 5820 5819 5817 5817 5816 5815 5814
5813 5811 5810 5810 5810 5810 5810 5811 5811 5812 5813 5813 5814 5815 5816 5816 5817 5817 5818 5819 5820 5820 5820 5820 5820 5820 5820 5820 5819 5819 5819 5818 5818 5817 5817 5815 5814 5813 5812 5811 5810 5809 5808
5808 5807 5806 5806 5806 5806 5806 5807 5807 5808 5808 5809 5810 5812 5812 5812 5813 5813 5814 5815 5815 5815 5815 5815 5815 5815 5815 5815 5814 5814 5813 5813 5812 5812 5810 5809 5809 5808 5807 5806 5805 5804 5803